Regional Weather Roundup
Issued by NWS Charleston, SC

Current Version | Previous Version | Text Only | Print | Product List | Glossary Off
Versions: 1 2 3 4 5 6 7 8 9 10 11 12 13 14 15 16 17 18 19 20 21 22 23 24 25 26 27 28 29 30 31 32 33 34 35 36 37 38 39 40 41 42 43 44 45 46 47 48 49 50
000 ASUS42 KCHS 270011 RWRCHS REGIONAL WEATHER ROUNDUP NATIONAL WEATHER SERVICE CHARLESTON SC 800 PM EDT THU MAR 26 2015 NOTE: "FAIR" INDICATES FEW OR NO CLOUDS BELOW 12,000 FEET WITH NO SIGNIFICANT WEATHER AND/OR OBSTRUCTIONS TO VISIBILITY. NOT ALL STATIONS ARE QUALITY CONTROLLED BY THE NATIONAL WEATHER SERVICE. USE DATA WITH CAUTION...ESPECIALLY DEWPOINT OBSERVATIONS. SCZ027-030-031-034>040-042>050-270100- ...SOUTHEAST SOUTH CAROLINA... CITY SKY/WX TMP DP RH WIND PRES REMARKS N CHARLESTON CLOUDY 68 56 65 SW10 29.85R 6HR MIN TEMP: 68; 6HR MAX TEMP: 79; WATERFRONT PRK N/A 66 N/A N/A SW7 N/A MOUNT PLEASANT FAIR 66 61 82 CALM 29.85S PINOPOLIS N/A 72 61 68 S5 29.78R MONCKS CORNER FAIR 70 57 64 S8 29.84S SUMMERVILLE FAIR 68 59 73 S3 29.85S BEAUFORT MCAS CLOUDY 69 57 65 S7 29.85S 6HR MIN TEMP: 68; 6HR MAX TEMP: 77; BEAUFORT ARPT FAIR 68 59 73 CALM 29.85S HILTON HEAD IS CLEAR 68 55 64 SW5 29.87S WALTERBORO CLOUDY 68 59 73 S7 29.85S ALLENDALE CLOUDY 73 59 60 CALM 29.82F ...SOUTHERN MIDLANDS AND PEE DEE... CITY SKY/WX TMP DP RH WIND PRES REMARKS GEORGETOWN NOT AVBL KINGSTREE NOT AVBL ORANGEBURG CLOUDY 72 55 55 SW7 29.80F 6HR MIN TEMP: 72; 6HR MAX TEMP: 78; BARNWELL FAIR 72 57 60 SW5 29.82F AIKEN FAIR 70 52 52 S8 29.83F MANNING FAIR 68 57 68 S6 29.81F COLUMBIA CLOUDY 73 55 53 S7 29.77F 6HR MIN TEMP: 73; 6HR MAX TEMP: 78; SUMTER MOCLDY 69 58 67 S6 29.77F 6HR MIN TEMP: 69; 6HR MAX TEMP: 79; FLORENCE CLOUDY 71 56 58 S8 29.78F 6HR MIN TEMP: 71; 6HR MAX TEMP: 78; MYRTLE BEACH MOCLDY 64 57 77 SW12 29.85R N MYRTLE BEACH CLOUDY 61 58 90 SW15 29.83S 6HR MIN TEMP: 61; 6HR MAX TEMP: 71; 6HR PCP: TRACE; $$ GAZ063-065-086>088-099>101-113>116-118-119-134>141-150-270100- ...SOUTHEAST GEORGIA... CITY SKY/WX TMP DP RH WIND PRES REMARKS SAVANNAH ARPT LGT RAIN 72 62 71 S5 29.85F 6HR MIN TEMP: 71; 6HR MAX TEMP: 79; 6HR PCP: TRACE; HUNTER AAF CLOUDY 71 62 72 S3 29.83F 6HR MIN TEMP: 71; 6HR MAX TEMP: 76; FORT STEWART CLOUDY 69 62 78 S3 29.83F 6HR MIN TEMP: 69; 6HR MAX TEMP: 77; 6HR PCP: 0.01; STATESBORO LGT RAIN 69 62 78 SW6 29.84S SYLVANIA RAIN 69 60 70 W6 29.85S CLAXTON LGT RAIN 64 64 100 CALM 29.84F ...CSRA...CENTRAL AND FAR SOUTHEAST GEORGIA... CITY SKY/WX TMP DP RH WIND PRES REMARKS THOMSON CLOUDY 71 61 71 CALM 29.84F AUGUSTA-BUSH CLOUDY 70 56 61 S6 29.80F 6HR MIN TEMP: 70; 6HR MAX TEMP: 77; AUGUSTA-DANIEL CLOUDY 72 56 57 S7 29.81F SWAINSBORO FAIR 72 50 46 SW5 29.83F VIDALIA LGT RAIN 64 63 94 CALM 29.83F EASTMAN FAIR 68 63 83 S7 29.84F HAZLEHURST LGT RAIN 64 64 100 S6 29.81F ALMA CLOUDY 65 64 97 SE5 29.82F 6HR MIN TEMP: 65; 6HR MAX TEMP: 76; 6HR PCP: 0.06; WAYCROSS LGT RAIN 69 69 99 SE5 29.84F JESUP LGT RAIN 70 68 94 CALM 29.85F BAXLEY LGT RAIN 66 64 94 S5 29.83F BRUNSWICK CLOUDY 68 63 83 CALM 29.87F SAINT SIMONS LGT RAIN 65 63 93 S6 29.87F 6HR MIN TEMP: 65; 6HR MAX TEMP: 75; 6HR PCP: 0.04; $$ SCZ027-028-034-036>038-045-046-048>050-GAZ119-141-270100- ...LAKE AND SUPPLEMENTAL COASTAL OBSERVATIONS... STATION/POSITION TIME TEMP WIND PRES WAVE SWELL AIR SEA DIR/SP/G HT/PER HT/PER/DIR (UTC) (F) (DEG/KT/KT) (MB) (FT/S) (FT/S/D) UPR LAKE MARION NOT AVBL WINYAH BAY NOT AVBL LAKE MURRAY 2300 71 240/ 5/ 7 1008.5F ACE BASIN NERRS NOT AVBL FORT PULASKI 2300 69 62 170/ 4/ 6 1011.5F SAPELO ISLAND 2300 69 170/ 5 1011.0S $$ ANZ835-935-AMZ111-154-330-350-352-354-370-450-454-472-270100- ...C-MAN AND BUOY OBSERVATIONS... STATION/POSITION TIME TEMP WIND PRES WAVE SWELL AIR SEA DIR/SP/G HT/PER HT/PER/DIR (UTC) (F) (DEG/KT/KT) (MB) (FT/S) (FT/S/D) BUOY 41004 2350 71 71 190/ 14/ 16 1010.3F 6/ 7 5/ 7 BUOY 41008 2350 63 61 190/ 8/ 10 1011.6R 3/ 8 3/110/ 8 FOLLY BEACH CMAN 0000 62 210/ 8/ 10 1010.9F CAPERS NEARSHORE 2300 62 230/ 10/ 12 N/A FRIPP NEARSHORE 2300 62 190/ 10/ 10 1010.9F STATION/POSITION TIME TEMP WIND PRES WAVE SWELL AIR SEA DIR/SP/G HT/PER HT/PER/DIR (UTC) (F) (DEG/KT/KT) (MB) (FT/S) (FT/S/D) 5E ST. MARYS GA 2321 64 N/A 3/ 9 FRYING PAN BUOY 2350 70 66 200/ 12/ 12 1011.2F 6/ 8 5/120/ 8 BUOY 41025 NOT AVBL CAPE LOOKOUT NC 0000 63 190/ 11/ 12 1009.8F BUOY 41002 2350 71 69 180/ 17/ 21 1015.6R 8/ 8 2/ 10/13 BUOY 41010 2320 77 76 180/ 16/ 17 1013.4R ST AUGUSTINE FL 0000 66 63 310/ 3/ 4 1012.5R $$

USA.gov is the U.S. government's official web portal to all federal, state and local government web resources and services.